Powrót do katalogu

GEESAT 3-02

AktywnyŁącznośćLEO
NORAD 61012·PAYLOAD·🇨🇳 China

Wystrzelony Sep 5, 2024 z Taiyuan Satellite Launch Center

Loading…

Następne Przeloty (najbliższe 24 godziny)

TLE

ŚwieżeSource: Space-Track

Epoka: Sep 14, 2026, 20:54 UTC

1 61012U 24159B   26257.87117241  .00001483  00000-0  20087-3 0  9990
2 61012  49.9955  27.1995 0018417  41.7498 318.4842 14.84503593110116

Śledź GEESAT 3-02 w czasie rzeczywistym z AllMySat

Download on the App Store